loading
DOY 175 | 2024-06-23T12:11:21Z

STARLINK-31916, 59795

Orbit data source: Space-Track

STARLINK-31916, 59795 is a payload satellite owned by SpaceX/Seattle (US) in LEO that was launched on Sat, 18 May 2024 UTC via a Falcon 9 launch vehicle from the Air Force Eastern Test Range (AFETR). Payloads include a variety of satellites, spacecraft, and rockets equipped with specific instruments for various scientific and technological missions. These include communications satellites like Starlink; space stations such as the ISS; scientific satellites like the Hubble; Earth observation satellites from companies like Planet Labs, Umbra, and HawkEye 360; GPS; miniature CubeSats for education and research; and military/defense satellites.

Loading next visibility...
Loading greatness...
STARLINK-31916 details
NORAD ID59795
COSPAR ID
2024-093P
Orbit
LEO
Last TLE update8 hours ago
Origin
Flag of USSpaceX/Seattle (US)
ManufacturerSpaceX/Seattle
BusStarlink V2M
MotorUnknown
Mass750 kg wet, ~700 kg dry
Launch date (UTC)
2024-05-18 (1 month ago)
Launch vehicle
Falcon 9
Launch site
Air Force Eastern Test Range (AFETR)
Object type
Payload
Rocket body
Debris
Radar Cross SectionLarge (>1 m²)
Predictive object data (real-time)
Latitude26.44194°
Longitude-18.67983°
Altitude444.42 km
Speed7.65 km/s
Apparent Right ascension17h 08m 17s
Apparent Declination-15° 03' 19"
Sunlit
Object is in full shadow
Predictive observer data (real-time)
Local Sidereal Time23:19:30
Azimuth260.066° W
Elevation-11.706°
Doppler factor1
Orbital elements
Apogee446.401 km
Perigee445.576 km
Semi-major axis6,824.125 km
Eccentricity0.0000605
Inclination42.9991°
RAAN164.2897°
Arg. of periapsis280.0187°
True anomaly80.06693°
Mean anomaly80.0601°
Mean motion3.85011 °/min
BSTAR-0.0001909
Period93.5 mins
Definitive object data (Epoch: 2024-06-23T03:48:27.59Z)
Latitude-0.00004°
Longitude-164.63695°
Altitude443.735 km
Speed7.648 km/s
True Right ascension10h 57m 09s
True Declination0° 00' 00"
Sunlit
Object was in daylight at TLE epoch
TLE from 8 hours ago
0 STARLINK-31916
1 59795U 24093P   24175.15865267 -.00008269  00000-0 -19090-3 0  9991
2 59795  42.9991 164.2897 0000605 280.0187  80.0601 15.40703448  6855
Epoch: 2024-06-23T03:48Z
No data available

STARLINK-31916 Visibility forecast

Observer location: 39.9160978°, -105.1181434, 0m alt.

STARLINK-31916 is not visible in the next 10 days
Span
Click to sort rows by Start time (UTC) header in descending order
Start Az.
Max El. time (UTC)
Max El. Az.
Max El.
End time (UTC)
End Az.